DMSP 5D-2 F13 DEB, 40560

Orbit data source: Space-Track

DMSP 5D-2 F13 DEB, 40560 is space debris in SSO originally from a launch on Fri, 24 Mar 1995 UTC launched from the Air Force Western Test Range (AFWTR). Debris objects in space refer to the collection of defunct objects orbiting the Earth. Examples of debris include non-operational satellites, rocket bodies, and fragments generated from explosions, collisions, or faulty payload assembly.

Loading next visibility...
Identifier
40560, 1995-015DT
Orbit
SSO
Country
Flag of USUS
Related business
Manufacturer
Unknown
Mission
Spacecraft
Bus & Motor
Unknown
Mass
Unknown
Launch date (UTC)
1995-03-24 (31 years ago)
Launch vehicle
Unknown
Launch site
Air Force Western Test Range (AFWTR)
Object type
Payload
Rocket body
Debris
Shape & HBR
Unknown shape, 0.1 m
Radar Cross Section
Small (<0.1 m²)

Expand to show TLE details & history
Last TLE update: 2 days ago

TLE from 2 days ago
0 DMSP 5D-2 F13 DEB
1 40560U 95015DT  26118.57050995  .00005054  00000-0  14650-2 0  9995
2 40560  98.6019 161.9677 0009955  23.0576 337.1059 14.44825009576269
Epoch: 2026-04-28T13:41Z
TLE epoch observation values (Epoch: 2026-04-28T13:41:32.059Z)
Latitude
-0.00008°
Longitude
100.04021°
Altitude
739.022 km
Speed
7.489 km/s
True Right ascension
10h 47m 52s
True Declination
0° 00' 00"
Sunlit
Object was in full shadow at epoch
Visualization orbit readout
Latitude
Unknown
Longitude
Unknown
Altitude
Unknown
Speed
Unknown
Apparent Right ascension
Unknown
Apparent Declination
Unknown
Sunlit
N/A
Visualization observer readout
Local Sidereal Time
10:41:33
Azimuth
Unknown
Elevation
Unknown
Doppler factor
Unknown
Orbital elements
Apogee altitude
746.807 km
Perigee altitude
732.635 km
Semi-major axis
7,117.858 km
Eccentricity
0.001
Inclination
98.6019°
RAAN
161.9677°
Arg. of periapsis
23.0576°
True anomaly
337.06147°
Mean anomaly
337.1059°
Eccentric anomaly
337.08369°
Mean motion
3.61426 °/min
Orbital period
99.61 mins
BSTAR
0.001465
Loading maneuver chart data...
Computing Atmospheric mass density...

Documentation

Showing up to 5 results
|